This demonstration page uses our WeatherBlox Daily Observations layout. Learn more.

Left ArrowRight Arrow

Hourly Observations for June 25, 2021

Temp ( °F °C ) Dew Point ( °F °C ) Humidity (%) Winds ( mph kmh ) Pressure ( in mb ) Visibility ( mi km ) Precip ( " mm )
12:53 am 00:53 Clear 73 22.8 65 18.3 76 76 Calm 30.19 1022 10 16 0.00 0.00
1:53 am 01:53 Clear 72 22.2 64 17.8 76 76 Calm 30.18 1022 10 16 0.00 0.00
2:53 am 02:53 Partly Cloudy 71 21.7 63 17.2 76 76 E 5 7 30.17 1022 10 16 0.00 0.00
3:53 am 03:53 Mostly Clear 70 21.1 63 17.2 79 79 E 3 6 30.17 1022 10 16 0.00 0.00
4:53 am 04:53 Mostly Cloudy 67 19.4 64 17.8 91 91 Calm 30.18 1022 10 16 0.00 0.00
5:53 am 05:53 Clear 65 18.3 63 17.2 93 93 Calm 30.18 1022 10 16 0.00 0.00
6:53 am 06:53 Sunny 66 18.9 63 17.2 90 90 Calm 30.19 1022 10 16 0.00 0.00
7:53 am 07:53 Sunny 68 20 63 17.2 84 84 Calm 30.20 1023 10 16 0.00 0.00
8:53 am 08:53 Sunny 71 21.7 63 17.2 76 76 VRB 3 6 30.21 1023 10 16 0.00 0.00
9:53 am 09:53 Mostly Cloudy 73 22.8 63 17.2 71 71 ENE 6 9 30.23 1024 10 16 0.00 0.00
10:53 am 10:53 Mostly Sunny 77 25 62 16.7 60 60 ESE 6 9 30.23 1024 10 16 0.00 0.00
11:53 am 11:53 Sunny 79 26.1 62 16.7 56 56 E 8 13 30.22 1023 10 16 0.00 0.00
12:53 pm 12:53 Partly Cloudy 80 26.7 62 16.7 54 54 SSE 6 9 30.20 1023 10 16 0.00 0.00
1:53 pm 13:53 Mostly Cloudy 80 26.7 61 16.1 52 52 E 7 11 30.19 1022 10 16 0.00 0.00
2:53 pm 14:53 Mostly Cloudy 82 27.8 61 16.1 49 49 E 8 13 30.16 1021 10 16 0.00 0.00
3:53 pm 15:53 Cloudy 82 27.8 60 15.6 47 47 SE 9 15 30.16 1021 10 16 0.00 0.00
4:53 pm 16:53 Mostly Cloudy 82 27.8 61 16.1 49 49 VRB 6 9 30.14 1021 10 16 0.00 0.00
5:53 pm 17:53 Cloudy 81 27.2 60 15.6 49 49 E 9 15 30.14 1021 10 16 0.00 0.00
6:53 pm 18:53 Sunny 83 28.3 60 15.6 46 46 ESE 5 7 30.13 1020 10 16 0.00 0.00
7:53 pm 19:53 Sunny 81 27.2 60 15.6 49 49 VRB 6 9 30.13 1020 10 16 0.00 0.00
8:53 pm 20:53 Clear 79 26.1 60 15.6 52 52 ESE 7 11 30.12 1020 10 16 0.00 0.00
9:53 pm 21:53 Clear 77 25 60 15.6 56 56 Calm 30.14 1021 10 16 0.00 0.00
10:53 pm 22:53 Clear 68 20 61 16.1 78 78 Calm 30.15 1021 10 16 0.00 0.00
11:53 pm 23:53 Clear 74 23.3 62 16.7 67 67 SE 6 9 30.13 1020 10 16 0.00 0.00

Powered by AerisWeather